Home > Weather > Brazzaville > Past weeks

Flag for Congo Past Weather in Brazzaville, Congo — Yesterday and Last 2 Weeks

Now
66 °F

Clear.


Feels Like: 66 °F
Forecast: 64 / 89 °F
Wind: 5 mph from West

Location: Brazzaville / Maya-Maya

Current Time: Jul 28, 2016 at 2:06:29 AM

Latest Report: Jul 28, 2016 at 1:00 AM


Visibility: 4 mi

Pressure: 29.98 "Hg

Humidity: 83%

Dew Point: 61 °F

Location of BrazzavilleLocation

Past Weather in Brazzaville — Graph

°F

Brazzaville Temperature Yesterday

Maximum temperature yesterday: 84 °F (at 4:00 PM)
Minimum temperature yesterday: 63 °F (at 5:00 AM)
Average temperature yesterday: 72 °F

High & Low Weather Summary for the Past Weeks

 TemperatureHumidityPressure
High88 °F (Jul 15, 4:00 PM)100% (Jul 17, 6:00 AM)30.07 "Hg (Jul 17, 6:00 AM)
Low63 °F (Jul 25, 5:00 AM)43% (Jul 20, 4:00 PM)29.80 "Hg (Jul 15, 4:00 PM)
Average73 °F77%29.96 "Hg
* Reported Jul 13 1:00 AM — Jul 28 1:00 AM, Brazzaville, Weather by CustomWeather, © 2016

Note: Actual official high and low records may vary slightly from our data, if they occured in-between our weather recording intervals... More about our weather records

Advertising

Brazzaville Weather History for the Previous 24 Hours

Scroll right to see more
 ConditionsComfort  
Time TempWeatherWind HumidityBarometerVisibility
1:00 AM
Thu, Jul 28
66 °FClear.5 mph83%29.98 "Hg4 mi
12:00 AM68 °FClear.6 mph78%29.98 "Hg4 mi
11:00 PM
Wed, Jul 27
72 °FClear.5 mph69%29.98 "Hg4 mi
10:00 PM72 °FClear.5 mph69%29.98 "Hg4 mi
9:00 PM73 °FClear.3 mph69%29.95 "Hg4 mi
8:00 PM75 °FClear.5 mph65%29.95 "Hg4 mi
7:00 PM77 °FClear.2 mph61%29.92 "Hg4 mi
6:00 PM81 °FClear.6 mph54%29.89 "Hg4 mi
5:00 PM84 °FClear.10 mph48%29.89 "Hg5 mi
4:00 PM84 °FClear.6 mph51%29.89 "Hg5 mi
3:00 PM82 °FClear.5 mph55%29.89 "Hg5 mi
2:00 PM82 °FClear.6 mph55%29.92 "Hg5 mi
1:00 PM77 °FScattered clouds.5 mph65%29.98 "Hg4 mi
12:00 PM75 °FBroken clouds.5 mph69%30.01 "Hg4 mi
11:00 AM73 °FBroken clouds.9 mph74%30.04 "Hg4 mi
10:00 AM72 °FPartly sunny.8 mph73%30.04 "Hg4 mi
9:00 AM70 °FFog.6 mph78%30.04 "Hg3 mi
8:00 AM66 °FFog.3 mph88%30.04 "Hg2 mi
7:52 AM66 °FFog.3 mph88%30.04 "Hg2 mi
7:00 AM63 °FFog.No wind94%30.01 "Hg1 mi
6:00 AM63 °FClear.No wind94%29.98 "Hg4 mi
5:00 AM63 °FClear.3 mph94%29.98 "Hg4 mi
4:00 AM64 °FClear.3 mph88%29.98 "Hg4 mi
3:00 AM64 °FClear.No wind94%29.95 "Hg4 mi
2:00 AM66 °FClear.2 mph88%29.95 "Hg4 mi
Weather by CustomWeather, © 2016

See weather overviewHow to use our weather pages